EHI
0 0 0 0 0 0 0 0 0 0 0 0 0 0 0 0 0 0 0 0 0 0 0 0 0 0 0 0 0 0 0 0 0 0 0 0 0 0 0 0 0 0 0
0 0 0 0 0 0 0 0 0 0 0 0 0 0 0 0 0 0 0 0 0 0 0 0 0 0 0 0 0 0 0 0 0 0 0 0 0 0 0 0 0 0 0
0 0 0 0 0 0 0 0 0 0 0 0 0 0 0 0 0 0 0 0 0 0 0 0 0 0 0 0 0 0 0 0 0 0 0 0 0 0 0 0 0 0 0
0 0 0 0 0 0 0 0 0 0 0 0 0 0 0 0 0 0 0 0 0 0 0 0 0 0 0 0 0 0 0 0 0 0 0 0 0 0 0 0 0 0 0
0 0 0 0 0 0 0 0 0 0 0 0 0 0 0 0 0 0 0 0 0 0 0 0 0 0 0 0 0 0 0 0 0 0 0 0 0 0 0 0 0 0 0
0 0 0 0 0 0 0 0 0 0 0 0 0 0 0 0 0 0 0 0 0 0 0 0 0 0 0 0 0 0 0 0 0 0 0 0 0 0 0 0 0 0 0
0 0 0 0 0 0 0 0 0 0 0 0 0 0 0 0 0 0 0 0 0 0 0 0 0 0 0 0 0 0 0 0 0 0 0 0 0 0 0 0 0 0 0
0 0 0 0 0 0 0 0 0 0 0 0 0 0 0 0 0 0 0 0 0 0 0 0 0 0 0 0 0 0 0 0 0 0 0 0 0 0 0 0 0 0 0
0 0 0 0 0 0 0 0 0 0 0 0 0 0 0 0 0 0 0 0 0 0 0 0 0 0 0 0 0 0 0 0 0 0 0 0 0 0 0 0 0 0 0
0 0 0 0 0 0 0 0 0 0 0 0 0 0 0 0 0 0 0 0 0 0 0 0 0 0 0 0 0 0 0 0 0 0 0 0 0 0 0 0 0 0 0
0 0 0 0 0 0 0 0 0 0 0 0 0 0 0 0 0 0 0 0 0 0 0 0 0 0 0 0 0 0 0 0 0 0 0 0 0 0 0 0 0 0 0
0 0 0 0 0 0 0 0 0 0 0 0 0 0 0 0 0 0 0 0 0 0 0 0 0 0 0 0 0 0 0 0 0 0 0 0 0 0 0 0 0 0 0
0 0 0 0 0 0 0 0 0 0 0 0 0 0 0 0 0 0 0 0 0 0 0 0 0 0 0 0 0 0 0 0 0 0 0 0 0 0 0 0 0 0 0
0 0 0 0 0 0 0 0 0 0 0 0 0 0 0 0 0 0 0 0 0 0 0 0 0 0 0 0 0 0 0 0 0 0 0 0 0 0 0 0 0 0 0
0 0 0 0 0 0 0 0 0 0 0 0 0 0 0 0 0 0 0 0 0 0 0 0 0 0 0 0 0 0 0 0 0 0 0 0 0 0 0 0 0 0 0
0 0 0 0 0 0 0 0 0 0 0 0 0 0 0 0 0 0 0 0 0 0 0 0 0 0 0 0 0 0 0 0 0 0 0 0 0 0 0 0 0 0 0
0 0 0 0 0 0 0 0 0 0 0 0 0 0 0 0 0 0 0 0 0 0 0 0 0 0 0 0 0 0 0 0 0 0 0 0 0 0 0 0 0 0 0
0 0 0 0 0 0 0 0 0 0 0 0 0 0 0 0 0 0 0 0 0 0 0 0 0 0 0 0 0 0 0 0 0 0 0 0 0 0 0 0 0 0 0
0 0 0 0 0 0 0 0 0 0 0 0 0 0 0 0 0 0 0 0 0 0 0 0 0 0 0 0 0 0 0 0 0 0 0 0 0 0 0 0 0 0 0
0 0 0 0 0 0 0 0 0 0 0 0 0 0 0 0 0 0 0 0 0 0 0 0 0 0 0 0 0 0 0 0 0 0 0 0 0 0 0 0 0 0 0
0 0 0 0 0 0 0 0 0 0 0 0 0 0 0 0 0 0 0 0 0 0 0 0 0 0 0 0 0 0 0 0 0 0 0 0 0 0 0 0 0 0 0
0 0 0 0 0 0 0 0 0 0 0 0 0 0 0 0 0 0 0 0 0 0 0 0 0 0 0 0 0 0 0 0 0 0 0 0 0 0 0 0 0 0 0
0 0 0 0 0 0 0 0 0 0 0 0 0 0 0 0 0 0 0 0 0 0 0 0 0 0 0 0 0 0 0 0 0 0 0 0 0 0 0 0 0 0 0
0 0 0 0 0 0 0 0 0 0 0 0 0 0 0 0 0 0 0 0 0 0 0 0 0 0 0 0 0 0 0 0 0 0 0 0 0 0 0 0 0 0 0
0 0 0 0 0 0 0 0 0 0 0 0 0 0 0 0 0 0 0 0 0 0 0 0 0 0 0 0 0 0 0 0 0 0 0 0 0 0 0 0 0 0 0
0 0 0 0 0 0 0 0 0 0 0 0 0 0 0 0 0 0 0 0 0 0 0 0 0 0 0 0 0 0 0 0 0 0 0 0 0 0 0 0 0 0 0
Wind_Speed
5 4 3 2 1 2 3 5 5 4 5 5 5 5 4 3 2 1 1 2 3 3 3 4 4 3 2 2 2 2 2 3 4 2 3 4 5 5 5 5 5 5 5
6 5 5 4 2 2 3 4 4 4 5 5 5 5 5 4 3 2 2 4 5 6 6 6 5 4 4 3 3 4 3 3 5 5 4 4 5 4 4 4 4 5 5
6 6 5 5 4 3 3 3 3 4 5 5 5 5 5 4 4 4 5 7 8 8 7 7 5 6 6 5 5 5 5 6 5 5 3 3 3 3 3 4 4 4 5
7 7 7 7 6 5 4 3 3 3 4 4 4 4 4 4 5 6 8 9 9 8 7 6 6 6 6 6 6 6 7 7 6 5 3 3 3 3 3 3 4 3 4
7 7 8 7 7 6 5 4 3 3 3 2 3 4 4 4 4 7 7 9 9 9 8 7 7 9 9 8 7 6 7 6 5 4 3 3 4 4 3 3 3 3 3
8 8 7 7 7 6 6 5 3 2 2 1 3 4 4 3 6 9 8 8 9 9 8 7 8 8 11 13 13 11 8 6 5 3 2 3 3 3 3 3 3 4 4
8 8 8 8 7 7 6 5 4 3 2 2 3 4 4 4 9 12 12 8 7 7 7 7 7 8 8 7 10 11 10 10 6 4 3 1 1 2 3 4 3 2 1
8 8 8 9 8 7 7 7 5 4 4 3 4 4 4 5 12 14 14 9 8 7 7 7 8 7 6 7 8 8 7 6 5 3 3 1 1 0 1 1 1 1 2
7 8 9 10 9 8 8 7 6 4 4 4 4 5 5 5 11 14 12 8 7 6 5 6 8 7 10 11 9 8 8 7 8 11 8 7 7 7 4 4 5 4 3
10 8 9 10 11 11 10 8 6 5 5 5 5 6 6 5 10 14 12 7 7 5 5 5 9 9 10 11 8 8 8 5 6 9 9 9 7 8 9 5 3 3 2
13 10 8 9 11 11 9 7 7 6 6 6 6 5 6 6 9 13 13 7 7 6 4 3 3 10 11 11 9 6 6 5 6 7 6 6 5 5 5 4 3 3 3
11 10 8 9 10 10 10 9 8 9 8 7 6 5 4 5 6 10 14 11 10 7 5 4 4 9 10 9 7 9 11 8 5 5 5 5 4 4 4 4 5 4 3
10 10 9 9 9 9 11 12 9 9 8 7 7 6 5 3 4 8 12 15 14 6 6 9 8 8 8 6 8 9 8 5 5 5 4 3 2 2 3 4 6 6 6
9 9 9 8 9 9 9 10 10 10 9 8 8 7 5 4 4 3 4 7 11 7 5 7 7 6 5 4 5 4 3 4 4 3 2 2 3 4 4 4 4 4 5
9 8 8 8 9 10 10 11 13 12 13 11 9 9 9 8 9 12 9 7 7 7 7 4 2 2 2 2 2 2 3 3 4 3 3 4 4 4 3 3 3 4 4
7 7 6 7 7 8 9 9 13 11 16 17 14 12 10 11 15 15 14 15 15 15 8 4 3 3 3 4 4 3 2 3 3 3 3 3 3 3 3 3 3 4 3
8 7 6 7 7 7 9 10 9 6 11 15 16 17 14 15 18 18 15 15 15 14 5 4 4 4 3 4 5 4 3 3 3 3 3 3 3 2 2 3 3 3 3
8 8 7 6 7 7 9 10 11 11 9 6 8 13 16 18 19 18 16 11 6 5 3 4 4 3 3 5 6 5 4 4 3 3 3 3 3 2 2 2 2 2 2
7 6 5 5 7 6 8 9 10 11 10 8 5 4 9 13 16 17 16 7 8 6 4 4 4 4 4 5 7 6 5 5 5 4 3 3 3 3 2 2 2 4 3
7 11 8 5 6 6 7 9 10 10 10 9 9 8 8 7 6 7 5 5 6 6 5 5 5 5 5 6 7 6 5 5 5 4 4 3 3 3 3 3 3 3 2
6 7 9 6 6 6 7 9 10 11 10 10 9 11 17 12 12 11 8 6 7 6 6 5 5 5 6 6 6 7 7 5 5 5 5 4 4 3 3 4 4 4 3
6 5 5 5 6 6 7 9 10 11 11 11 8 9 14 8 9 9 8 7 6 5 5 5 5 5 7 8 8 7 7 6 6 5 5 5 4 4 4 3 3 3 3
6 6 6 5 6 7 9 9 10 11 11 10 11 11 10 6 8 8 9 7 6 5 5 5 4 4 5 6 7 8 8 8 8 8 8 6 5 5 4 4 5 4 4
7 7 6 6 6 6 9 10 11 11 12 11 11 11 11 9 8 9 8 6 6 6 5 5 6 8 10 7 6 6 6 7 8 9 12 10 8 6 5 5 5 6 5
6 6 6 6 6 7 9 10 11 12 12 11 10 10 10 9 7 7 7 7 7 7 7 7 6 8 11 11 9 7 9 12 11 10 10 9 10 9 8 7 6 5 4
6 7 6 5 6 7 9 10 11 12 11 11 10 9 10 9 8 7 6 6 6 6 6 6 8 10 11 10 11 12 11 12 13 13 11 9 10 9 9 7 7 6 6
Wind_Direction
199 190 176 190 231 296 316 322 324 335 350 2 2 1 348 329 309 269 219 170 142 120 111 119 110 106 101 105 114 109 102 107 108 59 25 13 18 10 357 2 14 25 19
202 192 190 192 202 253 287 304 320 337 345 353 357 357 348 348 354 28 81 93 105 107 106 107 110 105 87 84 87 82 82 91 107 93 43 20 19 6 6 14 16 28 30
196 192 193 197 202 225 251 275 304 326 337 344 356 359 358 13 41 64 89 95 99 101 103 107 109 103 87 78 78 78 80 86 90 97 67 16 6 359 358 10 25 21 34
191 191 197 203 205 212 228 251 280 307 321 332 1 17 20 31 61 85 94 96 95 90 88 88 86 90 90 85 80 81 89 87 83 83 65 22 1 334 14 11 9 7 18
190 194 204 205 202 201 209 226 255 287 304 345 31 49 41 41 89 105 103 103 97 89 77 70 70 79 81 81 86 83 87 88 81 77 62 34 12 8 360 346 9 351 355
194 199 202 197 196 196 196 199 210 248 287 34 82 75 55 56 106 109 109 101 98 94 85 73 67 63 74 75 77 77 84 94 93 84 70 54 10 358 351 6 15 26 358
201 198 192 191 195 196 186 181 189 205 211 161 129 104 81 85 112 110 107 105 99 94 89 82 76 67 71 74 64 59 55 59 83 124 99 71 24 343 16 22 21 49 1
208 197 192 188 193 190 180 180 186 186 190 177 156 133 105 106 120 115 109 101 94 89 91 96 90 69 68 81 71 55 41 29 34 75 130 145 135 171 110 83 339 21 335
245 209 196 189 188 185 185 184 180 176 185 181 162 146 121 110 122 123 115 107 99 87 83 87 94 84 77 80 76 65 47 24 39 61 80 79 67 64 71 57 38 46 11
300 255 213 191 186 188 188 180 170 170 180 171 163 157 142 134 131 132 127 122 114 104 83 74 86 96 87 83 80 75 61 31 39 49 46 38 37 39 47 66 92 87 55
318 293 241 204 193 188 182 173 166 166 167 170 165 162 155 153 143 145 145 138 139 131 121 110 101 104 97 89 85 80 86 83 61 59 49 34 25 23 21 29 56 114 106
323 312 271 224 204 191 178 177 172 168 170 173 166 163 166 166 160 158 160 159 152 143 148 151 144 123 108 97 84 87 85 77 66 57 49 32 21 8 359 17 37 52 80
317 320 299 247 215 193 183 181 175 174 176 178 173 174 176 177 184 177 169 168 164 148 158 162 156 135 106 84 77 88 86 82 76 67 52 20 343 341 10 27 26 34 37
301 308 308 275 228 205 191 184 182 182 182 182 180 179 172 168 173 168 154 154 156 142 141 155 150 129 98 89 75 75 88 110 113 101 74 18 16 31 31 31 36 29 37
284 296 303 284 241 211 197 191 188 191 188 182 185 179 175 182 192 175 159 156 157 153 134 110 113 119 109 89 86 92 90 92 91 83 65 44 34 38 24 18 39 49 53
270 287 296 292 261 221 199 194 201 190 188 185 182 178 188 184 171 176 172 166 160 152 136 143 159 168 166 155 149 143 118 111 115 106 81 67 57 52 32 18 41 59 57
250 266 284 291 271 231 198 182 178 186 185 184 183 183 180 170 170 176 177 172 166 154 140 157 170 183 183 163 159 157 157 151 138 122 104 88 82 72 58 33 32 49 50
244 258 272 290 282 237 200 183 176 172 168 173 190 191 179 169 169 169 160 141 152 167 162 167 179 181 172 162 162 161 156 147 139 138 131 118 108 101 75 49 42 61 64
243 247 257 285 285 247 200 179 173 171 169 158 138 154 175 164 158 160 154 153 166 177 181 180 179 170 166 167 167 166 162 160 157 155 158 155 145 128 106 80 76 80 90
242 248 254 277 283 247 199 177 170 166 161 160 163 153 144 138 149 168 182 167 169 176 180 184 184 173 166 170 170 168 167 164 158 159 170 177 175 154 138 125 118 115 117
240 244 253 269 269 239 199 179 168 163 163 166 169 168 166 170 174 178 183 180 178 179 181 184 182 179 173 172 173 174 176 178 172 169 173 181 179 165 153 147 144 139 143
234 231 233 248 262 238 198 177 166 162 163 162 158 160 171 168 169 176 185 190 187 181 176 173 178 182 178 178 178 176 180 185 182 175 177 181 180 169 160 156 153 148 151
230 230 237 246 253 224 192 173 164 161 162 160 156 158 170 175 172 179 186 190 187 186 181 176 178 189 191 186 179 175 181 189 188 179 176 178 177 174 169 167 167 160 169
230 229 237 249 243 210 181 169 164 162 162 160 159 163 173 180 178 182 183 185 188 192 187 184 190 198 198 194 190 186 187 185 177 179 177 176 177 175 171 170 173 174 179
229 230 240 242 224 193 172 163 160 160 162 164 165 167 173 178 177 179 182 185 188 193 196 193 193 198 199 197 195 198 197 188 183 180 179 177 177 176 175 174 174 175 179
232 240 238 220 197 174 160 156 155 156 160 165 168 168 171 178 182 181 179 182 188 194 198 198 200 199 198 198 201 197 191 190 190 186 182 181 181 183 180 179 179 178 174